Find Starlink 11185

NORAD ID: 62588 Int'l Des: 2025-008 Owner: SPXS Country: US Constellation: starlink operational
LEOCIRCULAR

Live-Position

3D-Globus wird geladen...

Über Starlink 11185

Beschreibung wird geladen...

Nächste Überflüge

Passes for default location (London). Set your location on the main map for personalized predictions.

Höhenverlauf

Loading altitude history...

Zweizeiliger Elementsatz

1 62588U 25008B 26125.50001156 .00150748 00000-0 11613-2 0 9997
2 62588 43.0006 143.4938 0001555 278.2187 12.5086 15.70754506 6027
Epoch: 5. Mai 2026 • Age: 8 hours

Aktueller Status

Höhe 360.5 km
Geschwindigkeit 7.70 km/s
Subsatellitenpunkt 42.87°N, 55.35°E
Startdatum 13. Jan. 2025
Alter 1.3 years
Typ internet

Technische Details

Klassifizierung Payload
Masse 960.00 kg
Trockenmasse 910.00 kg
Gesamtmasse 960.00 kg
Länge 0.30 m
Durchmesser 4.10 m
Spannweite 29.00 m
Form Box + pan
Hersteller SPXS
Bus-Typ Starlink V2MD
Phasenstatus In Orbit
Besitzer/Staat SPXS/US

Most Searched